CZ-6A DEB, 56664

Orbit data source: Space-Track

CZ-6A DEB, 56664 is space debris in SSO originally from a launch on Fri, 11 Nov 2022 UTC launched from the Taiyaun Space Center, China (TSC). Debris objects in space refer to the collection of defunct objects orbiting the Earth. Examples of debris include non-operational satellites, rocket bodies, and fragments generated from explosions, collisions, or faulty payload assembly.

Loading next visibility...
Identifier
56664, 2022-151AGQ
Orbit
SSO
Country
Flag of CNCN / PRC
Related business
Manufacturer
SAST
Mission
Spacecraft
Bus & Motor
Unknown
Mass
Unknown
Launch date (UTC)
2022-11-11 (4 years ago)
Launch vehicle
Unknown
Launch site
Taiyaun Space Center, China (TSC)
Object type
Payload
Rocket body
Debris
Shape & HBR
Unknown shape, 0.1 m
Radar Cross Section
Small (<0.1 m²)

Expand to show TLE details & history
Last TLE update: 12 hours ago

TLE from 12 hours ago
0 CZ-6A DEB
1 56664U 22151AGQ 26236.47252173  .00000318  00000-0  19047-3 0  9994
2 56664  98.8248 240.4734 0034203 124.8902 235.5494 14.13635531177122
Epoch: 2026-08-24T11:20Z
TLE epoch observation values (Epoch: 2026-08-24T11:20:25.877Z)
Latitude
0.00004°
Longitude
97.61184°
Altitude
863.899 km
Speed
7.413 km/s
True Right ascension
16h 01m 53s
True Declination
0° 00' 00"
Sunlit
Object was in daylight at epoch
Visualization orbit readout
Latitude
Unknown
Longitude
Unknown
Altitude
Unknown
Speed
Unknown
Apparent Right ascension
Unknown
Apparent Declination
Unknown
Sunlit
N/A
Visualization observer readout
Local Sidereal Time
14:13:43
Azimuth
Unknown
Elevation
Unknown
Doppler factor
Unknown
Orbital elements
Apogee altitude
868.833 km
Perigee altitude
819.428 km
Semi-major axis
7,222.267 km
Eccentricity
0.00342
Inclination
98.8248°
RAAN
240.4734°
Arg. of periapsis
124.8902°
True anomaly
235.22698°
Mean anomaly
235.5494°
Eccentric anomaly
235.38811°
Mean motion
3.53617 °/min
Orbital period
101.81 mins
BSTAR
0.00019047
Loading maneuver chart data...
Computing Atmospheric mass density...
Loading historical data...
Loading historical data...
Loading historical data...
Loading historical data...
Loading historical data...
Loading historical data...
Loading historical data...

Documentation

Showing up to 5 results
|